San Antonio, TX

10:15 AM CDT on September 30, 2016 (GMT -0500)
San Antonio International

Weather History for KSAT - November, 2010

Change the Weather History Date:

Saturday, November 6, 2010

  Actual Average Record
Temperature  
Mean Temperature 54 °F 65 °F  
Max Temperature 70 °F 76 °F 91 °F (1996)
Min Temperature 37 °F 54 °F 32 °F (1970)
Degree Days  
Heating Degree Days 11 4  
Month to date heating degree days 34 19  
Since 1 July heating degree days 46 52  
Cooling Degree Days 0 3  
Month to date cooling degree days 9 22  
Year to date cooling degree days 3050 3077  
Growing Degree Days 2 (Base 50)    
Moisture  
Dew Point 33 °F    
Average Humidity 53    
Maximum Humidity 82    
Minimum Humidity 24    
Precipitation  
Precipitation 0.00 in 0.08 in 0.99 in (1889)
Month to date precipitation 0.24 0.55  
Year to date precipitation 36.74 28.63  
Snow  
Snow 0.00 in - - ()
Month to date snowfall 0.0  
Since 1 July snowfall 0.0  
Since 1 September snowfall 0.0  
Snow Depth 0.00 in    
Sea Level Pressure  
Sea Level Pressure 30.31 in    
Wind  
Wind Speed 4 mph (NW)    
Max Wind Speed 9 mph    
Max Gust Speed 12 mph    
Visibility 10 miles    
Events      
T = Trace of Precipitation, MM = Missing Value Source: NWS Daily Summary

Daily Weather History Graph

Daily Weather History Graph

Search for Another Location

Airport or City:

Trip Planner

Search our weather history database for the weather conditions in past years. The results will help you decide how hot, cold, wet, or windy it might be!

Date:

Astronomy

Nov. 06, 2010 Rise Set
Actual Time 7:50 AM CDT 6:43 PM CDT
Civil Twilight 7:26 AM CDT 7:08 PM CDT
Nautical Twilight 6:57 AM CDT 7:36 PM CDT
Astronomical Twilight 6:29 AM CDT 8:04 PM CDT
Moon 8:21 AM CDT (11/6) 7:02 PM CDT (11/6)
Length of Visible Light 11h 42m
Length of Day
10h 52m
New Moon, 0% of the Moon is Illuminated
Nov 6
New Moon
Nov 13
First Quarter
Nov 21
Full
Nov 28
Last Quarter
Dec 5
New

Hourly Weather History & Observations

Time (CDT) Temp. Windchill Dew Point Humidity Pressure Visibility Wind Dir Wind Speed Gust Speed Precip Events Conditions
12:53 AM 43.0 °F 41.3 °F 34.0 °F 71% 30.27 in 10.0 mi NW 3.5 mph - N/A   Clear
1:53 AM 43.0 °F 40.3 °F 35.1 °F 74% 30.28 in 10.0 mi NW 4.6 mph - N/A   Clear
2:53 AM 41.0 °F 38.0 °F 33.1 °F 73% 30.28 in 10.0 mi NW 4.6 mph - N/A   Clear
3:53 AM 37.9 °F 35.5 °F 32.0 °F 79% 30.27 in 10.0 mi NW 3.5 mph - N/A   Clear
4:53 AM 39.0 °F 36.8 °F 32.0 °F 76% 30.27 in 10.0 mi NW 3.5 mph - N/A   Clear
5:53 AM 39.0 °F 36.8 °F 32.0 °F 76% 30.28 in 10.0 mi NW 3.5 mph - N/A   Clear
6:53 AM 37.9 °F 34.4 °F 30.9 °F 76% 30.29 in 10.0 mi NW 4.6 mph - N/A   Clear
7:53 AM 37.9 °F 34.4 °F 30.9 °F 76% 30.32 in 10.0 mi NW 4.6 mph - N/A   Clear
8:53 AM 45.0 °F 43.5 °F 35.1 °F 68% 30.34 in 10.0 mi NNW 3.5 mph - N/A   Clear
9:53 AM 53.1 °F - 30.9 °F 43% 30.36 in 10.0 mi East 4.6 mph - N/A   Clear
10:53 AM 57.9 °F - 27.0 °F 31% 30.38 in 10.0 mi East 5.8 mph - N/A   Clear
11:53 AM 61.0 °F - 28.0 °F 29% 30.37 in 10.0 mi SE 8.1 mph - N/A   Clear
12:53 PM 64.0 °F - 30.0 °F 28% 30.35 in 10.0 mi Variable 3.5 mph - N/A   Clear
1:53 PM 64.9 °F - 30.0 °F 27% 30.32 in 10.0 mi Variable 4.6 mph - N/A   Clear
2:53 PM 66.9 °F - 32.0 °F 27% 30.30 in 10.0 mi South 5.8 mph - N/A   Clear
3:53 PM 68.0 °F - 30.9 °F 25% 30.29 in 10.0 mi South 4.6 mph - N/A   Clear
4:53 PM 68.0 °F - 32.0 °F 26% 30.28 in 10.0 mi SE 5.8 mph - N/A   Clear
5:53 PM 66.9 °F - 33.1 °F 28% 30.29 in 10.0 mi SE 4.6 mph - N/A   Clear
6:53 PM 61.0 °F - 32.0 °F 34% 30.29 in 10.0 mi SSE 5.8 mph - N/A   Clear
7:53 PM 57.9 °F - 34.0 °F 41% 30.31 in 10.0 mi Calm Calm - N/A   Clear
8:53 PM 55.9 °F - 35.1 °F 45% 30.32 in 10.0 mi Calm Calm - N/A   Clear
9:53 PM 53.1 °F - 37.9 °F 57% 30.35 in 10.0 mi Calm Calm - N/A   Clear
10:53 PM 50.0 °F - 37.9 °F 63% 30.35 in 10.0 mi Calm Calm - N/A   Clear
11:53 PM 46.9 °F - 39.0 °F 74% 30.35 in 10.0 mi Calm Calm - N/A   Clear